GW3985 Weather Reports


time (UTC)temp
F
wind
direction
speed
knots
gust
knots
rain 1hr
in
rain 24hr
in
rain mn
in
humidity
%
barometer
mb
20260901043055 62 0.0 0.0 0.00 0.01 0.01 82 1026.5
20260901042015 62 0.0 0.0 0.00 0.01 0.01 81 1026.5
20260901041016 62 0.0 0.0 0.00 0.01 0.01 81 1026.5
20260901040016 62 0.0 0.0 0.00 0.01 0.01 79 1026.7
20260901035016 63 0.0 0.0 0.00 0.01 0.01 78 1026.9
20260901034017 63 255 0.0 0.9 0.01 0.01 0.01 78 1027.1
20260901033057 62 220 0.0 1.7 0.01 0.01 0.01 81 1027.1
20260901032035 62 0.0 0.0 0.01 0.01 0.01 82 1027.5
20260901031035 63 242 0.0 0.9 0.01 0.01 0.01 81 1027.5
20260901030016 63 242 0.0 0.9 0.01 0.01 0.01 81 1027.6
20260901025016 63 166 0.0 1.7 0.01 0.01 0.01 80 1027.6
20260901024016 65 127 0.9 3.5 0.00 0.00 0.00 77 1027.2
20260901023017 66 168 0.9 6.1 0.00 0.00 0.00 74 1027.4
20260901022015 71 173 2.6 8.7 0.00 0.00 0.00 62 1027.0
20260901021015 74 263 1.7 9.6 0.00 0.00 0.00 46 1025.9
20260901020036 75 129 0.0 1.7 0.00 0.00 0.00 45 1025.0
20260901015056 75 143 0.9 3.5 0.00 0.00 0.00 44 1024.6
20260901014016 76 143 0.9 4.3 0.00 0.00 0.00 44 1024.4
20260901013016 76 132 0.9 3.5 0.00 0.00 0.00 43 1024.3
20260901012017 76 101 0.0 1.7 0.00 0.00 0.00 45 1024.1
20260901011015 77 93 0.9 1.7 0.00 0.00 0.00 47 1024.0
20260901010016 77 91 0.0 2.6 0.00 0.00 0.00 46 1023.9
20260901005015 77 98 0.0 0.9 0.00 0.00 0.00 44 1024.1
20260901004036 78 90 0.0 0.9 0.00 0.00 0.00 44 1024.3
20260901003016 79 245 0.0 0.9 0.00 0.00 0.00 43 1024.4
20260901002016 79 89 0.9 1.7 0.00 0.00 0.00 42 1024.5
20260901001017 80 99 0.9 1.7 0.00 0.00 0.00 39 1024.5
20260901000015 82 91 0.9 2.6 0.00 0.00 0.00 38 1024.5
20260831235015 82 97 0.9 2.6 0.00 0.00 0.00 38 1024.6
20260831234015 82 100 0.9 1.7 0.00 0.00 0.00 38 1024.6
20260831233016 83 85 0.9 3.5 0.00 0.00 0.00 37 1024.6
20260831232016 83 89 0.9 2.6 0.00 0.00 0.00 37 1024.6
20260831231017 82 133 0.9 3.5 0.00 0.00 0.00 35 1024.6
20260831230017 82 115 0.9 2.6 0.00 0.00 0.00 35 1024.6
20260831225035 82 144 1.7 4.3 0.00 0.00 0.00 34 1024.9
20260831224015 83 133 0.9 3.5 0.00 0.00 0.00 33 1024.9
20260831223016 85 139 0.9 3.5 0.00 0.00 0.00 33 1025.1
20260831222016 86 136 0.9 5.2 0.00 0.00 0.00 32 1025.2
20260831221016 85 88 0.9 1.7 0.00 0.01 0.00 33 1025.3
20260831220017 86 146 0.9 3.5 0.00 0.02 0.00 34 1025.2
20260831215014 86 48 0.9 2.6 0.00 0.02 0.00 34 1025.3
20260831214015 86 96 0.9 1.7 0.00 0.02 0.00 35 1025.5
20260831213015 86 95 0.9 2.6 0.00 0.02 0.00 35 1025.6
20260831212016 85 89 0.9 2.6 0.00 0.02 0.00 35 1025.7
20260831211016 83 111 0.9 1.7 0.00 0.02 0.00 36 1025.8
20260831210036 84 99 0.9 2.6 0.00 0.02 0.00 34 1026.0
20260831205017 85 114 0.0 0.9 0.00 0.02 0.00 36 1026.0
20260831204015 84 120 0.9 2.6 0.00 0.02 0.00 36 1026.2
20260831203015 83 92 0.0 1.7 0.00 0.02 0.00 38 1026.3
20260831202016 83 283 0.0 1.7 0.00 0.02 0.00 38 1026.5
20260831201016 82 0.0 0.0 0.00 0.02 0.00 38 1026.7
20260831200016 82 0.0 0.0 0.00 0.02 0.00 40 1026.8
20260831195016 81 0.0 0.0 0.00 0.02 0.00 39 1026.8
20260831194017 81 219 0.0 0.9 0.00 0.02 0.00 39 1026.9
20260831193015 82 242 0.0 1.7 0.00 0.02 0.00 38 1027.0
20260831192015 82 27 0.0 0.9 0.00 0.02 0.00 39 1027.1
20260831191015 82 289 0.0 0.9 0.00 0.02 0.00 39 1027.2
20260831190036 82 282 0.0 0.9 0.00 0.02 0.00 38 1027.3
20260831185016 82 256 0.0 1.7 0.00 0.02 0.00 37 1027.4
20260831184017 81 250 0.0 0.9 0.00 0.02 0.00 38 1027.5
20260831183037 80 244 0.0 0.9 0.00 0.02 0.00 39 1027.6
20260831182015 79 0.0 0.0 0.00 0.02 0.00 40 1027.7
20260831181015 80 267 0.0 0.9 0.00 0.02 0.00 40 1027.7
20260831180015 79 266 0.0 0.9 0.00 0.02 0.00 41 1027.8
20260831175016 79 270 0.0 0.9 0.00 0.02 0.00 41 1027.9
20260831174016 78 251 0.0 0.9 0.00 0.02 0.00 42 1027.8
20260831173017 78 0.0 0.0 0.00 0.02 0.00 42 1027.9
20260831172017 78 250 0.0 0.9 0.00 0.02 0.00 41 1028.0
20260831171035 77 0.0 0.0 0.00 0.02 0.00 41 1028.0
20260831170015 77 267 0.0 0.9 0.00 0.02 0.00 43 1028.0
20260831165016 77 268 0.0 0.9 0.00 0.02 0.00 42 1028.0
20260831164036 76 12 0.0 0.9 0.00 0.02 0.00 43 1027.9
20260831163056 75 12 0.0 0.9 0.00 0.02 0.00 45 1027.9
20260831162038 74 12 0.0 0.9 0.00 0.02 0.00 47 1027.8
20260831161035 74 12 0.0 1.7 0.00 0.02 0.00 50 1027.7
20260831160015 73 41 0.0 1.7 0.00 0.02 0.00 51 1027.8
20260831155015 73 0.0 0.0 0.00 0.02 0.00 50 1027.7
20260831154016 72 141 0.0 0.9 0.00 0.02 0.00 52 1027.7
20260831153016 71 141 0.0 0.9 0.00 0.02 0.00 52 1027.6
20260831152016 71 0.0 0.0 0.00 0.02 0.00 52 1027.6
20260831151017 70 141 0.0 0.9 0.00 0.02 0.00 53 1027.6
20260831150015 70 141 0.0 0.9 0.00 0.02 0.00 54 1027.5
20260831145015 69 143 0.0 1.7 0.00 0.02 0.00 55 1027.4
20260831144015 68 143 0.0 0.9 0.00 0.02 0.00 56 1027.3
20260831143016 68 142 0.0 0.9 0.00 0.02 0.00 57 1027.3
20260831142016 67 142 0.9 1.7 0.00 0.02 0.00 57 1027.3
20260831141017 66 147 0.9 1.7 0.00 0.02 0.00 58 1027.3
20260831140037 66 145 0.0 1.7 0.00 0.02 0.00 59 1027.2
20260831135015 65 133 0.0 1.7 0.00 0.02 0.00 59 1027.0
20260831134015 64 143 0.0 1.7 0.00 0.02 0.00 61 1026.7
20260831133018 63 148 0.0 1.7 0.00 0.02 0.00 61 1026.7
20260831132016 63 136 0.0 1.7 0.00 0.02 0.00 62 1026.7
20260831131036 62 136 0.0 1.7 0.00 0.02 0.00 62 1026.6
20260831125517 62 136 0.0 0.9 0.00 0.02 0.00 62 1026.3
20260831124515 62 136 0.0 0.9 0.00 0.02 0.00 63 1026.2
20260831123535 62 141 0.0 0.9 0.00 0.02 0.00 63 1026.1
20260831122535 62 140 0.0 0.9 0.00 0.02 0.00 63 1026.0
20260831121516 62 142 0.0 1.7 0.00 0.02 0.00 64 1026.0
20260831120516 62 140 0.0 0.9 0.00 0.02 0.00 64 1026.0
20260831115537 62 140 0.0 0.9 0.00 0.02 0.00 64 1025.8
20260831114517 62 146 0.0 1.7 0.00 0.02 0.00 64 1025.8
20260831113535 62 0.0 0.0 0.00 0.02 0.00 64 1025.8
20260831112515 62 137 0.0 0.9 0.00 0.02 0.00 64 1025.7
20260831111515 62 136 0.9 1.7 0.00 0.02 0.00 65 1025.7
20260831110516 62 136 0.0 0.9 0.00 0.02 0.00 65 1025.6
20260831105516 62 136 0.0 0.9 0.00 0.02 0.00 64 1025.5
20260831104517 62 136 0.0 0.9 0.00 0.02 0.00 64 1025.6
20260831103517 62 137 0.0 0.9 0.00 0.02 0.00 64 1025.6
20260831102535 62 137 0.0 1.7 0.00 0.02 0.00 64 1025.5
20260831101515 62 137 0.0 0.9 0.00 0.02 0.00 65 1025.4
20260831100516 62 139 0.0 0.9 0.00 0.02 0.00 65 1025.3
20260831095516 62 139 0.0 0.9 0.00 0.02 0.00 66 1025.3
20260831094536 62 149 0.9 1.7 0.00 0.02 0.00 66 1025.3
20260831093517 62 136 0.0 0.9 0.00 0.02 0.00 66 1025.4
20260831092515 62 148 0.9 2.6 0.00 0.02 0.00 66 1025.2
20260831091515 63 143 0.0 1.7 0.00 0.02 0.00 66 1025.2
20260831090515 63 142 0.0 1.7 0.00 0.02 0.00 65 1025.2
20260831085556 63 142 0.9 3.5 0.00 0.02 0.00 65 1025.1
20260831084516 63 140 0.9 2.6 0.00 0.02 0.00 66 1025.3
20260831083516 62 145 0.9 3.5 0.00 0.02 0.00 66 1025.4
20260831082537 62 140 0.0 1.7 0.00 0.02 0.00 67 1025.5
20260831081515 63 140 0.0 0.9 0.00 0.02 0.00 67 1025.5
20260831080535 63 140 0.0 1.7 0.00 0.02 0.00 67 1025.6
20260831075535 63 140 0.0 1.7 0.00 0.02 0.00 67 1025.8
20260831074516 63 150 0.0 1.7 0.00 0.02 0.00 68 1025.8
20260831073516 63 146 0.0 1.7 0.00 0.02 0.00 67 1025.8
20260831072517 63 141 0.9 2.6 0.00 0.02 0.00 67 1025.7
20260831071517 63 145 0.0 1.7 0.00 0.02 0.00 67 1025.8
20260831070535 63 141 0.9 3.5 0.00 0.02 0.00 67 1026.0
20260831065515 63 141 0.9 2.6 0.00 0.02 0.00 68 1026.2
20260831064515 63 141 0.9 1.7 0.00 0.02 0.00 68 1026.2
20260831063516 63 144 0.9 3.5 0.00 0.02 0.00 68 1026.4
20260831062516 63 139 0.9 3.5 0.00 0.02 0.00 69 1026.4
20260831061537 63 142 1.7 4.3 0.00 0.02 0.00 69 1026.6
20260831060517 64 145 0.9 3.5 0.00 0.02 0.00 69 1026.8
20260831055515 64 144 0.9 2.6 0.00 0.02 0.02 69 1026.8
20260831054515 64 127 0.0 0.9 0.00 0.02 0.02 69 1027.0
20260831053516 64 127 0.0 0.9 0.00 0.02 0.02 69 1026.9
20260831052516 64 0.0 0.0 0.00 0.02 0.02 69 1027.0
20260831051517 64 127 0.0 0.9 0.00 0.02 0.02 69 1026.9
20260831050517 65 125 0.0 0.9 0.00 0.02 0.02 68 1026.8
20260831045537 65 148 0.9 2.6 0.00 0.02 0.02 67 1027.2
20260831044515 66 141 1.7 5.2 0.00 0.02 0.02 68 1026.8
20260831043515 67 136 0.9 3.5 0.00 0.02 0.02 66 1027.2